Wetterdaten: aktuell Mittwoch, 05.10.2022 14:45
Datum Zeit Temp. Feuchte Luftdruck Nieders. Wind Richtung Richtung Sonnenschein Solar Taupunkt Windchill Windben
05.10.2022 14:45 18,4 C 74 % 1019,1 hPa 0,0 l/m 0,0 km/h (0 Bft) S-SW 200 5 min 504 W/m 13,7 C 18,4 C 0,0 km/h (0 Bft)
05.10.2022 14:40 18,4 C 77 % 1019,2 hPa 0,0 l/m 0,0 km/h (0 Bft) S 182 5 min 513 W/m 14,3 C 18,4 C 0,0 km/h (0 Bft)
05.10.2022 14:35 18,2 C 76 % 1019,3 hPa 0,0 l/m 0,0 km/h (0 Bft) S-SO 159 5 min 480 W/m 13,9 C 18,2 C 0,0 km/h (0 Bft)
05.10.2022 14:30 18,1 C 76 % 1019,3 hPa 0,0 l/m 0,0 km/h (0 Bft) S 174 5 min 527 W/m 13,8 C 18,1 C 0,0 km/h (0 Bft)
05.10.2022 14:25 18,0 C 76 % 1019,2 hPa 0,0 l/m 0,0 km/h (0 Bft) SW 218 5 min 520 W/m 13,7 C 18,0 C 0,0 km/h (0 Bft)
05.10.2022 14:20 17,9 C 77 % 1019,3 hPa 0,0 l/m 0,0 km/h (0 Bft) S 182 5 min 529 W/m 13,8 C 17,9 C 0,0 km/h (0 Bft)
05.10.2022 14:15 17,9 C 77 % 1019,4 hPa 0,0 l/m 0,0 km/h (0 Bft) S-SO 150 5 min 519 W/m 13,8 C 17,9 C 0,0 km/h (0 Bft)
05.10.2022 14:10 17,7 C 78 % 1019,4 hPa 0,0 l/m 0,0 km/h (0 Bft) S 173 5 min 570 W/m 13,8 C 17,7 C 0,0 km/h (0 Bft)
05.10.2022 14:05 17,6 C 78 % 1019,5 hPa 0,0 l/m 0,0 km/h (0 Bft) O-SO 123 5 min 450 W/m 13,7 C 17,6 C 0,0 km/h (0 Bft)
05.10.2022 14:00 17,4 C 79 % 1019,6 hPa 0,0 l/m 0,0 km/h (0 Bft) SO 143 5 min 536 W/m 13,7 C 17,4 C 0,0 km/h (0 Bft)
05.10.2022 13:55 17,1 C 79 % 1019,6 hPa 0,0 l/m 0,0 km/h (0 Bft) S-SO 152 5 min 540 W/m 13,4 C 17,1 C 0,0 km/h (0 Bft)
05.10.2022 13:50 16,9 C 79 % 1019,7 hPa 0,0 l/m 0,0 km/h (0 Bft) S-SO 166 5 min 510 W/m 13,2 C 16,9 C 0,0 km/h (0 Bft)
05.10.2022 13:45 16,7 C 80 % 1019,7 hPa 0,0 l/m 0,0 km/h (0 Bft) S 190 5 min 492 W/m 13,2 C 16,7 C 0,0 km/h (0 Bft)
05.10.2022 13:40 16,6 C 82 % 1019,8 hPa 0,0 l/m 0,0 km/h (0 Bft) S 176 5 min 468 W/m 13,5 C 16,6 C 0,0 km/h (0 Bft)
05.10.2022 13:35 16,3 C 81 % 1020,0 hPa 0,0 l/m 0,0 km/h (0 Bft) S-SO 162 5 min 461 W/m 13,0 C 16,3 C 0,0 km/h (0 Bft)
05.10.2022 13:30 16,2 C 82 % 1020,0 hPa 0,0 l/m 0,0 km/h (0 Bft) S 187 5 min 464 W/m 13,1 C 16,2 C 0,0 km/h (0 Bft)
05.10.2022 13:25 15,8 C 83 % 1020,0 hPa 0,0 l/m 0,0 km/h (0 Bft) S-SW 194 5 min 496 W/m 12,9 C 15,8 C 0,0 km/h (0 Bft)
05.10.2022 13:20 15,6 C 82 % 1020,1 hPa 0,0 l/m 0,0 km/h (0 Bft) S 172 5 min 534 W/m 12,5 C 15,6 C 0,0 km/h (0 Bft)
05.10.2022 13:15 15,6 C 82 % 1020,2 hPa 0,0 l/m 0,0 km/h (0 Bft) SO 146 5 min 643 W/m 12,5 C 15,6 C 0,0 km/h (0 Bft)
05.10.2022 13:10 15,8 C 83 % 1020,2 hPa 0,0 l/m 0,0 km/h (0 Bft) SW 215 5 min 522 W/m 12,9 C 15,8 C 0,0 km/h (0 Bft)
05.10.2022 13:05 15,7 C 82 % 1020,2 hPa 0,0 l/m 0,0 km/h (0 Bft) SO 142 5 min 510 W/m 12,6 C 15,7 C 0,0 km/h (0 Bft)
05.10.2022 13:00 15,6 C 83 % 1020,3 hPa 0,0 l/m 0,0 km/h (0 Bft) SW 221 5 min 496 W/m 12,7 C 15,6 C 0,0 km/h (0 Bft)
05.10.2022 12:55 15,4 C 83 % 1020,3 hPa 0,0 l/m 0,0 km/h (0 Bft) SO 146 5 min 524 W/m 12,5 C 15,4 C 0,0 km/h (0 Bft)
05.10.2022 12:50 15,3 C 84 % 1020,3 hPa 0,0 l/m 0,0 km/h (0 Bft) S-SW 209 5 min 594 W/m 12,6 C 15,3 C 0,0 km/h (0 Bft)
05.10.2022 12:45 15,2 C 86 % 1020,2 hPa 0,0 l/m 0,0 km/h (0 Bft) S-SO 165 5 min 578 W/m 12,9 C 15,2 C 0,0 km/h (0 Bft)
05.10.2022 12:40 14,8 C 86 % 1020,3 hPa 0,0 l/m 0,0 km/h (0 Bft) SO 146 5 min 608 W/m 12,5 C 14,8 C 0,0 km/h (0 Bft)
05.10.2022 12:35 14,4 C 88 % 1020,4 hPa 0,0 l/m 0,0 km/h (0 Bft) SO 127 5 min 575 W/m 12,4 C 14,4 C 0,0 km/h (0 Bft)
05.10.2022 12:30 14,1 C 88 % 1020,4 hPa 0,0 l/m 0,0 km/h (0 Bft) S-SO 159 5 min 297 W/m 12,1 C 14,1 C 0,0 km/h (0 Bft)
05.10.2022 12:25 13,7 C 89 % 1020,5 hPa 0,0 l/m 0,0 km/h (0 Bft) S-SO 148 5 min 594 W/m 11,9 C 13,7 C 0,0 km/h (0 Bft)
05.10.2022 12:20 13,4 C 91 % 1020,4 hPa 0,0 l/m 0,0 km/h (0 Bft) SO 136 5 min 598 W/m 12,0 C 13,4 C 0,0 km/h (0 Bft)
05.10.2022 12:15 13,0 C 91 % 1020,6 hPa 0,0 l/m 0,0 km/h (0 Bft) S-SO 167 5 min 336 W/m 11,6 C 13,0 C 0,0 km/h (0 Bft)
05.10.2022 12:10 12,7 C 91 % 1020,6 hPa 0,0 l/m 0,0 km/h (0 Bft) S 172 5 min 229 W/m 11,3 C 12,7 C 0,0 km/h (0 Bft)
05.10.2022 12:05 12,7 C 91 % 1020,6 hPa 0,0 l/m 0,0 km/h (0 Bft) O-SO 118 0 min 144 W/m 11,3 C 12,7 C 0,0 km/h (0 Bft)
05.10.2022 12:00 12,6 C 91 % 1020,7 hPa 0,0 l/m 0,0 km/h (0 Bft) O-SO 123 5 min 165 W/m 11,2 C 12,6 C 0,0 km/h (0 Bft)
05.10.2022 11:55 12,6 C 91 % 1020,8 hPa 0,0 l/m 0,0 km/h (0 Bft) SO 138 0 min 113 W/m 11,2 C 12,6 C 0,0 km/h (0 Bft)
05.10.2022 11:50 12,4 C 91 % 1020,8 hPa 0,0 l/m 0,0 km/h (0 Bft) O-SO 122 0 min 113 W/m 11,0 C 12,4 C 0,0 km/h (0 Bft)
05.10.2022 11:45 12,4 C 92 % 1020,8 hPa 0,0 l/m 0,0 km/h (0 Bft) SO 132 0 min 120 W/m 11,1 C 12,4 C 0,0 km/h (0 Bft)
05.10.2022 11:40 12,3 C 92 % 1020,9 hPa 0,0 l/m 0,0 km/h (0 Bft) SO 137 0 min 109 W/m 11,0 C 12,3 C 0,0 km/h (0 Bft)
05.10.2022 11:35 12,3 C 92 % 1020,9 hPa 0,0 l/m 0,0 km/h (0 Bft) S 188 0 min 127 W/m 11,0 C 12,3 C 0,0 km/h (0 Bft)
05.10.2022 11:30 12,3 C 92 % 1020,9 hPa 0,0 l/m 0,0 km/h (0 Bft) S-SW 196 0 min 135 W/m 11,0 C 12,3 C 0,0 km/h (0 Bft)
05.10.2022 11:25 12,1 C 93 % 1020,9 hPa 0,0 l/m 0,0 km/h (0 Bft) SO 142 5 min 230 W/m 11,0 C 12,1 C 0,0 km/h (0 Bft)
05.10.2022 11:20 12,0 C 92 % 1020,8 hPa 0,0 l/m 0,0 km/h (0 Bft) SO 133 5 min 179 W/m 10,7 C 12,0 C 0,0 km/h (0 Bft)
05.10.2022 11:15 11,9 C 92 % 1020,8 hPa 0,0 l/m 0,0 km/h (0 Bft) S-SO 150 0 min 121 W/m 10,6 C 11,9 C 0,0 km/h (0 Bft)
05.10.2022 11:10 11,9 C 92 % 1020,9 hPa 0,0 l/m 0,0 km/h (0 Bft) S-SO 155 0 min 104 W/m 10,6 C 11,9 C 0,0 km/h (0 Bft)
05.10.2022 11:05 11,9 C 93 % 1020,9 hPa 0,0 l/m 0,0 km/h (0 Bft) S-SO 165 0 min 123 W/m 10,8 C 11,9 C 0,0 km/h (0 Bft)
05.10.2022 11:00 11,9 C 93 % 1020,8 hPa 0,0 l/m 0,0 km/h (0 Bft) S-SW 203 0 min 120 W/m 10,8 C 11,9 C 0,0 km/h (0 Bft)
05.10.2022 10:55 11,8 C 93 % 1020,8 hPa 0,0 l/m 0,0 km/h (0 Bft) S-SW 203 5 min 160 W/m 10,7 C 11,8 C 0,0 km/h (0 Bft)
05.10.2022 10:50 11,6 C 93 % 1020,8 hPa 0,0 l/m 0,0 km/h (0 Bft) S-SW 209 5 min 237 W/m 10,5 C 11,6 C 0,0 km/h (0 Bft)
05.10.2022 10:45 11,5 C 93 % 1020,8 hPa 0,0 l/m 0,0 km/h (0 Bft) SO 145 0 min 135 W/m 10,4 C 11,5 C 0,0 km/h (0 Bft)
05.10.2022 10:40 11,4 C 93 % 1020,7 hPa 0,0 l/m 0,0 km/h (0 Bft) S-SO 167 0 min 86 W/m 10,3 C 11,4 C 0,0 km/h (0 Bft)
05.10.2022 10:35 11,5 C 94 % 1020,8 hPa 0,0 l/m 0,0 km/h (0 Bft) SO 138 0 min 90 W/m 10,6 C 11,5 C 0,0 km/h (0 Bft)
05.10.2022 10:30 11,6 C 94 % 1020,8 hPa 0,0 l/m 0,0 km/h (0 Bft) S-SO 154 0 min 58 W/m 10,7 C 11,6 C 0,0 km/h (0 Bft)
05.10.2022 10:25 11,6 C 94 % 1020,8 hPa 0,0 l/m 0,0 km/h (0 Bft) S 190 5 min 165 W/m 10,7 C 11,6 C 0,0 km/h (0 Bft)
05.10.2022 10:20 11,7 C 94 % 1020,7 hPa 0,0 l/m 0,0 km/h (0 Bft) O-SO 121 0 min 86 W/m 10,8 C 11,7 C 0,0 km/h (0 Bft)
05.10.2022 10:15 11,6 C 94 % 1020,8 hPa 0,0 l/m 0,0 km/h (0 Bft) O-SO 119 0 min 111 W/m 10,7 C 11,6 C 0,0 km/h (0 Bft)
05.10.2022 10:10 11,6 C 94 % 1020,8 hPa 0,0 l/m 0,0 km/h (0 Bft) SO 136 0 min 91 W/m 10,7 C 11,6 C 0,0 km/h (0 Bft)
05.10.2022 10:05 11,5 C 94 % 1020,8 hPa 0,0 l/m 0,0 km/h (0 Bft) O-SO 123 0 min 98 W/m 10,6 C 11,5 C 0,0 km/h (0 Bft)
05.10.2022 10:00 11,4 C 94 % 1020,8 hPa 0,0 l/m 0,0 km/h (0 Bft) O-SO 118 0 min 88 W/m 10,5 C 11,4 C 0,0 km/h (0 Bft)
05.10.2022 09:55 11,4 C 94 % 1020,8 hPa 0,0 l/m 0,0 km/h (0 Bft) O-SO 117 0 min 107 W/m 10,5 C 11,4 C 0,0 km/h (0 Bft)
05.10.2022 09:50 11,4 C 94 % 1020,7 hPa 0,0 l/m 0,0 km/h (0 Bft) S-SO 156 0 min 114 W/m 10,5 C 11,4 C 0,0 km/h (0 Bft)
05.10.2022 09:45 11,3 C 95 % 1020,7 hPa 0,0 l/m 0,0 km/h (0 Bft) S-SO 165 0 min 118 W/m 10,5 C 11,3 C 0,0 km/h (0 Bft)
05.10.2022 09:40 11,2 C 94 % 1020,7 hPa 0,0 l/m 0,0 km/h (0 Bft) S-SO 160 0 min 105 W/m 10,3 C 11,2 C 0,0 km/h (0 Bft)
05.10.2022 09:35 11,1 C 94 % 1020,8 hPa 0,0 l/m 0,0 km/h (0 Bft) SO 128 0 min 98 W/m 10,2 C 11,1 C 0,0 km/h (0 Bft)
05.10.2022 09:30 11,1 C 94 % 1020,7 hPa 0,0 l/m 0,0 km/h (0 Bft) SO 126 0 min 86 W/m 10,2 C 11,1 C 0,0 km/h (0 Bft)
05.10.2022 09:25 10,9 C 94 % 1020,8 hPa 0,0 l/m 0,0 km/h (0 Bft) S-SO 157 0 min 76 W/m 10,0 C 10,9 C 0,0 km/h (0 Bft)
05.10.2022 09:20 10,9 C 94 % 1020,8 hPa 0,0 l/m 0,0 km/h (0 Bft) S-SO 157 0 min 54 W/m 10,0 C 10,9 C 0,0 km/h (0 Bft)
05.10.2022 09:15 10,9 C 94 % 1020,8 hPa 0,0 l/m 0,0 km/h (0 Bft) S 178 0 min 47 W/m 10,0 C 10,9 C 0,0 km/h (0 Bft)
05.10.2022 09:10 10,9 C 94 % 1020,9 hPa 0,0 l/m 0,0 km/h (0 Bft) S-SO 148 0 min 35 W/m 10,0 C 10,9 C 0,0 km/h (0 Bft)
05.10.2022 09:05 10,9 C 94 % 1020,9 hPa 0,0 l/m 0,0 km/h (0 Bft) SO 146 0 min 49 W/m 10,0 C 10,9 C 0,0 km/h (0 Bft)
05.10.2022 09:00 10,9 C 94 % 1020,9 hPa 0,0 l/m 0,0 km/h (0 Bft) S-SO 155 0 min 58 W/m 10,0 C 10,9 C 0,0 km/h (0 Bft)
05.10.2022 08:55 10,8 C 94 % 1020,9 hPa 0,0 l/m 0,0 km/h (0 Bft) S-SO 154 0 min 46 W/m 9,9 C 10,8 C 0,0 km/h (0 Bft)
05.10.2022 08:50 10,7 C 94 % 1020,8 hPa 0,0 l/m 0,0 km/h (0 Bft) SO 142 0 min 40 W/m 9,8 C 10,7 C 0,0 km/h (0 Bft)
05.10.2022 08:45 10,7 C 94 % 1020,8 hPa 0,0 l/m 0,0 km/h (0 Bft) S-SO 156 0 min 30 W/m 9,8 C 10,7 C 0,0 km/h (0 Bft)
05.10.2022 08:40 10,7 C 94 % 1020,8 hPa 0,0 l/m 0,0 km/h (0 Bft) S-SO 166 0 min 37 W/m 9,8 C 10,7 C 0,0 km/h (0 Bft)
05.10.2022 08:35 10,6 C 94 % 1020,7 hPa 0,0 l/m 0,0 km/h (0 Bft) SO 138 0 min 30 W/m 9,7 C 10,6 C 0,0 km/h (0 Bft)
05.10.2022 08:30 10,5 C 94 % 1020,7 hPa 0,0 l/m 0,0 km/h (0 Bft) SO 133 0 min 33 W/m 9,6 C 10,5 C 0,0 km/h (0 Bft)
05.10.2022 08:25 10,3 C 94 % 1020,7 hPa 0,0 l/m 0,0 km/h (0 Bft) SO 142 0 min 28 W/m 9,4 C 10,3 C 0,0 km/h (0 Bft)
05.10.2022 08:20 10,3 C 94 % 1020,5 hPa 0,0 l/m 0,0 km/h (0 Bft) SO 142 0 min 23 W/m 9,4 C 10,3 C 0,0 km/h (0 Bft)
05.10.2022 08:15 10,1 C 94 % 1020,4 hPa 0,0 l/m 0,0 km/h (0 Bft) SO 131 0 min 23 W/m 9,2 C 10,1 C 0,0 km/h (0 Bft)
05.10.2022 08:10 10,1 C 94 % 1020,3 hPa 0,0 l/m 0,0 km/h (0 Bft) SO 132 0 min 16 W/m 9,2 C 10,1 C 0,0 km/h (0 Bft)
05.10.2022 08:05 10,1 C 94 % 1020,3 hPa 0,0 l/m 0,0 km/h (0 Bft) SO 132 0 min 18 W/m 9,2 C 10,1 C 0,0 km/h (0 Bft)
05.10.2022 08:00 10,2 C 94 % 1020,4 hPa 0,0 l/m 0,0 km/h (0 Bft) SO 134 0 min 12 W/m 9,3 C 10,2 C 0,0 km/h (0 Bft)
05.10.2022 07:55 10,2 C 94 % 1020,4 hPa 0,0 l/m 0,0 km/h (0 Bft) S-SO 157 0 min 14 W/m 9,3 C 10,2 C 0,0 km/h (0 Bft)
05.10.2022 07:50 10,2 C 94 % 1020,5 hPa 0,0 l/m 0,0 km/h (0 Bft) S-SO 161 0 min 11 W/m 9,3 C 10,2 C 0,0 km/h (0 Bft)
05.10.2022 07:45 10,2 C 94 % 1020,5 hPa 0,0 l/m 0,0 km/h (0 Bft) S-SO 163 0 min 7 W/m 9,3 C 10,2 C 0,0 km/h (0 Bft)
05.10.2022 07:40 10,2 C 94 % 1020,5 hPa 0,0 l/m 0,0 km/h (0 Bft) SO 132 0 min 5 W/m 9,3 C 10,2 C 0,0 km/h (0 Bft)
05.10.2022 07:35 10,2 C 94 % 1020,5 hPa 0,0 l/m 0,0 km/h (0 Bft) S 176 0 min 0 W/m 9,3 C 10,2 C 0,0 km/h (0 Bft)
05.10.2022 07:30 10,2 C 94 % 1020,5 hPa 0,0 l/m 0,0 km/h (0 Bft) SO 141 0 min 0 W/m 9,3 C 10,2 C 0,0 km/h (0 Bft)
05.10.2022 07:25 10,2 C 94 % 1020,5 hPa 0,0 l/m 0,0 km/h (0 Bft) SO 137 0 min 0 W/m 9,3 C 10,2 C 0,0 km/h (0 Bft)
05.10.2022 07:20 10,2 C 94 % 1020,5 hPa 0,0 l/m 0,0 km/h (0 Bft) S-SO 154 0 min 0 W/m 9,3 C 10,2 C 0,0 km/h (0 Bft)
05.10.2022 07:15 10,1 C 94 % 1020,5 hPa 0,2 l/m 0,0 km/h (0 Bft) S-SO 167 0 min 0 W/m 9,2 C 10,1 C 0,0 km/h (0 Bft)
05.10.2022 07:10 9,9 C 94 % 1020,5 hPa 0,0 l/m 0,0 km/h (0 Bft) SO 130 0 min 0 W/m 9,0 C 9,9 C 0,0 km/h (0 Bft)
05.10.2022 07:05 9,7 C 94 % 1020,4 hPa 0,0 l/m 0,0 km/h (0 Bft) SO 130 0 min 0 W/m 8,8 C 9,7 C 0,0 km/h (0 Bft)
05.10.2022 07:00 9,5 C 93 % 1020,4 hPa 0,0 l/m 0,0 km/h (0 Bft) SO 130 0 min 0 W/m 8,4 C 9,5 C 0,0 km/h (0 Bft)
05.10.2022 06:55 9,6 C 93 % 1020,4 hPa 0,0 l/m 0,0 km/h (0 Bft) SO 130 0 min 0 W/m 8,5 C 9,6 C 0,0 km/h (0 Bft)
05.10.2022 06:50 9,6 C 93 % 1020,3 hPa 0,0 l/m 0,0 km/h (0 Bft) SO 129 0 min 0 W/m 8,5 C 9,6 C 0,0 km/h (0 Bft)
05.10.2022 06:45 9,6 C 93 % 1020,3 hPa 0,0 l/m 0,0 km/h (0 Bft) SO 130 0 min 0 W/m 8,5 C 9,6 C 0,0 km/h (0 Bft)
05.10.2022 06:40 9,6 C 93 % 1020,2 hPa 0,0 l/m 0,0 km/h (0 Bft) SO 130 0 min 0 W/m 8,5 C 9,6 C 0,0 km/h (0 Bft)
05.10.2022 06:35 9,7 C 93 % 1020,2 hPa 0,0 l/m 0,0 km/h (0 Bft) SO 129 0 min 0 W/m 8,6 C 9,7 C 0,0 km/h (0 Bft)
05.10.2022 06:30 9,8 C 93 % 1020,2 hPa 0,0 l/m 0,0 km/h (0 Bft) SO 130 0 min 0 W/m 8,7 C 9,8 C 0,0 km/h (0 Bft)
05.10.2022 06:25 9,8 C 93 % 1020,2 hPa 0,0 l/m 0,0 km/h (0 Bft) SO 130 0 min 0 W/m 8,7 C 9,8 C 0,0 km/h (0 Bft)
05.10.2022 06:20 9,8 C 93 % 1020,1 hPa 0,0 l/m 0,0 km/h (0 Bft) SO 129 0 min 0 W/m 8,7 C 9,8 C 0,0 km/h (0 Bft)
05.10.2022 06:15 9,6 C 93 % 1020,1 hPa 0,0 l/m 0,0 km/h (0 Bft) SO 132 0 min 0 W/m 8,5 C 9,6 C 0,0 km/h (0 Bft)
05.10.2022 06:10 9,7 C 93 % 1020,1 hPa 0,0 l/m 0,0 km/h (0 Bft) SO 136 0 min 0 W/m 8,6 C 9,7 C 0,0 km/h (0 Bft)
05.10.2022 06:05 9,8 C 93 % 1020,2 hPa 0,0 l/m 0,0 km/h (0 Bft) S-SO 149 0 min 0 W/m 8,7 C 9,8 C 0,0 km/h (0 Bft)
05.10.2022 05:55 9,5 C 93 % 1020,2 hPa 0,0 l/m 0,0 km/h (0 Bft) - - 0 0 min 0 W/m 8,4 C 9,5 C 0,0 km/h (0 Bft)
05.10.2022 05:50 9,3 C 93 % 1020,3 hPa 0,0 l/m 0,0 km/h (0 Bft) - - 0 0 min 0 W/m 8,2 C 9,3 C 0,0 km/h (0 Bft)
05.10.2022 05:45 9,1 C 93 % 1020,4 hPa 0,0 l/m 0,0 km/h (0 Bft) - - 0 0 min 0 W/m 8,0 C 9,1 C 0,0 km/h (0 Bft)
05.10.2022 05:40 8,6 C 92 % 1020,3 hPa 0,0 l/m 0,0 km/h (0 Bft) - - 0 0 min 0 W/m 7,4 C 8,6 C 0,0 km/h (0 Bft)
05.10.2022 05:35 8,9 C 92 % 1020,4 hPa 0,0 l/m 0,0 km/h (0 Bft) - - 0 0 min 0 W/m 7,7 C 8,9 C 0,0 km/h (0 Bft)
05.10.2022 05:30 9,3 C 92 % 1020,5 hPa 0,0 l/m 0,0 km/h (0 Bft) - - 0 0 min 0 W/m 8,1 C 9,3 C 0,0 km/h (0 Bft)
05.10.2022 05:25 9,3 C 93 % 1020,5 hPa 0,0 l/m 0,0 km/h (0 Bft) - - 0 0 min 0 W/m 8,2 C 9,3 C 0,0 km/h (0 Bft)
05.10.2022 05:20 9,2 C 92 % 1020,4 hPa 0,0 l/m 0,0 km/h (0 Bft) - - 0 0 min 0 W/m 8,0 C 9,2 C 0,0 km/h (0 Bft)
05.10.2022 05:15 9,3 C 92 % 1020,3 hPa 0,0 l/m 0,0 km/h (0 Bft) - - 0 0 min 0 W/m 8,1 C 9,3 C 0,0 km/h (0 Bft)
05.10.2022 05:10 9,6 C 92 % 1020,3 hPa 0,0 l/m 0,0 km/h (0 Bft) - - 0 0 min 0 W/m 8,4 C 9,6 C 0,0 km/h (0 Bft)
05.10.2022 05:05 9,8 C 92 % 1020,3 hPa 0,0 l/m 0,0 km/h (0 Bft) - - 0 0 min 0 W/m 8,6 C 9,8 C 0,0 km/h (0 Bft)
05.10.2022 05:00 9,9 C 93 % 1020,3 hPa 0,0 l/m 0,0 km/h (0 Bft) - - 0 0 min 0 W/m 8,8 C 9,9 C 0,0 km/h (0 Bft)
05.10.2022 04:55 9,9 C 93 % 1020,3 hPa 0,0 l/m 0,0 km/h (0 Bft) - - 0 0 min 0 W/m 8,8 C 9,9 C 0,0 km/h (0 Bft)
05.10.2022 04:50 10,1 C 93 % 1020,3 hPa 0,0 l/m 0,0 km/h (0 Bft) - - 0 0 min 0 W/m 9,0 C 10,1 C 0,0 km/h (0 Bft)
05.10.2022 04:45 10,2 C 94 % 1020,3 hPa 0,0 l/m 0,0 km/h (0 Bft) - - 0 0 min 0 W/m 9,3 C 10,2 C 0,0 km/h (0 Bft)
05.10.2022 04:40 10,2 C 94 % 1020,2 hPa 0,0 l/m 0,0 km/h (0 Bft) - - 0 0 min 0 W/m 9,3 C 10,2 C 0,0 km/h (0 Bft)
05.10.2022 04:35 10,2 C 94 % 1020,1 hPa 0,0 l/m 0,0 km/h (0 Bft) - - 0 0 min 0 W/m 9,3 C 10,2 C 0,0 km/h (0 Bft)
05.10.2022 04:30 10,1 C 94 % 1020,1 hPa 0,0 l/m 0,0 km/h (0 Bft) - - 0 0 min 0 W/m 9,2 C 10,1 C 0,0 km/h (0 Bft)
05.10.2022 04:25 9,8 C 94 % 1020,1 hPa 0,0 l/m 0,0 km/h (0 Bft) - - 0 0 min 0 W/m 8,9 C 9,8 C 0,0 km/h (0 Bft)
05.10.2022 04:20 9,8 C 94 % 1020,1 hPa 0,0 l/m 0,0 km/h (0 Bft) - - 0 0 min 0 W/m 8,9 C 9,8 C 0,0 km/h (0 Bft)
05.10.2022 04:15 9,4 C 94 % 1020,3 hPa 0,0 l/m 0,0 km/h (0 Bft) - - 0 0 min 0 W/m 8,5 C 9,4 C 0,0 km/h (0 Bft)
05.10.2022 04:10 9,1 C 94 % 1020,3 hPa 0,0 l/m 0,0 km/h (0 Bft) - - 0 0 min 0 W/m 8,2 C 9,1 C 0,0 km/h (0 Bft)
05.10.2022 04:05 8,4 C 94 % 1020,4 hPa 0,0 l/m 0,0 km/h (0 Bft) - - 0 0 min 0 W/m 7,5 C 8,4 C 0,0 km/h (0 Bft)
05.10.2022 04:00 8,0 C 94 % 1020,4 hPa 0,0 l/m 0,0 km/h (0 Bft) - - 0 0 min 0 W/m 7,1 C 8,0 C 0,0 km/h (0 Bft)
05.10.2022 03:55 7,4 C 93 % 1020,6 hPa 0,0 l/m 0,0 km/h (0 Bft) - - 0 0 min 0 W/m 6,3 C 7,4 C 0,0 km/h (0 Bft)
05.10.2022 03:50 7,3 C 92 % 1020,6 hPa 0,0 l/m 0,0 km/h (0 Bft) - - 0 0 min 0 W/m 6,1 C 7,3 C 0,0 km/h (0 Bft)
05.10.2022 03:45 7,9 C 93 % 1020,8 hPa 0,0 l/m 0,0 km/h (0 Bft) - - 0 0 min 0 W/m 6,8 C 7,9 C 0,0 km/h (0 Bft)
05.10.2022 03:40 8,1 C 94 % 1021,0 hPa 0,0 l/m 0,0 km/h (0 Bft) - - 0 0 min 0 W/m 7,2 C 8,1 C 0,0 km/h (0 Bft)
05.10.2022 03:35 8,1 C 94 % 1021,1 hPa 0,0 l/m 0,0 km/h (0 Bft) - - 0 0 min 0 W/m 7,2 C 8,1 C 0,0 km/h (0 Bft)
05.10.2022 03:30 8,0 C 94 % 1021,1 hPa 0,0 l/m 0,0 km/h (0 Bft) - - 0 0 min 0 W/m 7,1 C 8,0 C 0,0 km/h (0 Bft)
05.10.2022 03:25 7,7 C 93 % 1021,0 hPa 0,0 l/m 0,0 km/h (0 Bft) - - 0 0 min 0 W/m 6,6 C 7,7 C 0,0 km/h (0 Bft)
05.10.2022 03:20 7,6 C 93 % 1021,0 hPa 0,0 l/m 0,0 km/h (0 Bft) - - 0 0 min 0 W/m 6,5 C 7,6 C 0,0 km/h (0 Bft)
05.10.2022 03:15 7,4 C 93 % 1020,9 hPa 0,0 l/m 0,0 km/h (0 Bft) - - 0 0 min 0 W/m 6,3 C 7,4 C 0,0 km/h (0 Bft)
05.10.2022 03:10 7,5 C 92 % 1020,9 hPa 0,0 l/m 0,0 km/h (0 Bft) - - 0 0 min 0 W/m 6,3 C 7,5 C 0,0 km/h (0 Bft)
05.10.2022 03:05 7,9 C 93 % 1020,8 hPa 0,0 l/m 0,0 km/h (0 Bft) - - 0 0 min 0 W/m 6,8 C 7,9 C 0,0 km/h (0 Bft)
05.10.2022 03:00 8,3 C 93 % 1021,0 hPa 0,0 l/m 0,0 km/h (0 Bft) - - 0 0 min 0 W/m 7,2 C 8,3 C 0,0 km/h (0 Bft)
05.10.2022 02:55 8,1 C 94 % 1020,9 hPa 0,0 l/m 0,0 km/h (0 Bft) - - 0 0 min 0 W/m 7,2 C 8,1 C 0,0 km/h (0 Bft)
05.10.2022 02:50 7,7 C 93 % 1020,7 hPa 0,0 l/m 0,0 km/h (0 Bft) - - 0 0 min 0 W/m 6,6 C 7,7 C 0,0 km/h (0 Bft)
05.10.2022 02:45 7,1 C 92 % 1020,7 hPa 0,0 l/m 0,0 km/h (0 Bft) - - 0 0 min 0 W/m 5,9 C 7,1 C 0,0 km/h (0 Bft)
05.10.2022 02:40 7,0 C 92 % 1020,9 hPa 0,0 l/m 0,0 km/h (0 Bft) - - 0 0 min 0 W/m 5,8 C 7,0 C 0,0 km/h (0 Bft)
05.10.2022 02:35 7,0 C 92 % 1021,1 hPa 0,0 l/m 0,0 km/h (0 Bft) - - 0 0 min 0 W/m 5,8 C 7,0 C 0,0 km/h (0 Bft)
05.10.2022 02:30 7,2 C 91 % 1021,2 hPa 0,0 l/m 0,0 km/h (0 Bft) - - 0 0 min 0 W/m 5,8 C 7,2 C 0,0 km/h (0 Bft)
05.10.2022 02:25 7,3 C 92 % 1021,3 hPa 0,0 l/m 0,0 km/h (0 Bft) - - 0 0 min 0 W/m 6,1 C 7,3 C 0,0 km/h (0 Bft)
05.10.2022 02:20 7,4 C 92 % 1021,2 hPa 0,0 l/m 0,0 km/h (0 Bft) - - 0 0 min 0 W/m 6,2 C 7,4 C 0,0 km/h (0 Bft)
05.10.2022 02:15 7,4 C 91 % 1021,2 hPa 0,0 l/m 0,0 km/h (0 Bft) - - 0 0 min 0 W/m 6,0 C 7,4 C 0,0 km/h (0 Bft)
05.10.2022 02:10 7,6 C 92 % 1021,2 hPa 0,0 l/m 0,0 km/h (0 Bft) - - 0 0 min 0 W/m 6,4 C 7,6 C 0,0 km/h (0 Bft)
05.10.2022 02:05 7,6 C 91 % 1021,2 hPa 0,0 l/m 0,0 km/h (0 Bft) - - 0 0 min 0 W/m 6,2 C 7,6 C 0,0 km/h (0 Bft)
05.10.2022 02:00 7,7 C 91 % 1021,3 hPa 0,0 l/m 0,0 km/h (0 Bft) - - 0 0 min 0 W/m 6,3 C 7,7 C 0,0 km/h (0 Bft)
05.10.2022 01:55 7,9 C 91 % 1021,4 hPa 0,0 l/m 0,0 km/h (0 Bft) - - 0 0 min 0 W/m 6,5 C 7,9 C 0,0 km/h (0 Bft)
05.10.2022 01:50 8,1 C 91 % 1021,4 hPa 0,0 l/m 0,0 km/h (0 Bft) - - 0 0 min 0 W/m 6,7 C 8,1 C 0,0 km/h (0 Bft)
05.10.2022 01:45 8,2 C 91 % 1021,5 hPa 0,0 l/m 0,0 km/h (0 Bft) - - 0 0 min 0 W/m 6,8 C 8,2 C 0,0 km/h (0 Bft)
05.10.2022 01:40 8,2 C 91 % 1021,4 hPa 0,0 l/m 0,0 km/h (0 Bft) - - 0 0 min 0 W/m 6,8 C 8,2 C 0,0 km/h (0 Bft)
05.10.2022 01:35 8,3 C 91 % 1021,3 hPa 0,0 l/m 0,0 km/h (0 Bft) - - 0 0 min 0 W/m 6,9 C 8,3 C 0,0 km/h (0 Bft)
05.10.2022 01:30 8,5 C 91 % 1021,4 hPa 0,0 l/m 0,0 km/h (0 Bft) - - 0 0 min 0 W/m 7,1 C 8,5 C 0,0 km/h (0 Bft)
05.10.2022 01:25 8,7 C 91 % 1021,3 hPa 0,0 l/m 0,0 km/h (0 Bft) - - 0 0 min 0 W/m 7,3 C 8,7 C 0,0 km/h (0 Bft)
05.10.2022 01:20 8,8 C 91 % 1021,3 hPa 0,0 l/m 0,0 km/h (0 Bft) - - 0 0 min 0 W/m 7,4 C 8,8 C 0,0 km/h (0 Bft)
05.10.2022 01:15 9,0 C 91 % 1021,3 hPa 0,0 l/m 0,0 km/h (0 Bft) - - 0 0 min 0 W/m 7,6 C 9,0 C 0,0 km/h (0 Bft)
05.10.2022 01:10 9,2 C 91 % 1021,3 hPa 0,0 l/m 0,0 km/h (0 Bft) - - 0 0 min 0 W/m 7,8 C 9,2 C 0,0 km/h (0 Bft)
05.10.2022 01:05 9,2 C 91 % 1021,3 hPa 0,0 l/m 0,0 km/h (0 Bft) - - 0 0 min 0 W/m 7,8 C 9,2 C 0,0 km/h (0 Bft)
05.10.2022 01:00 9,3 C 91 % 1021,2 hPa 0,0 l/m 0,0 km/h (0 Bft) - - 0 0 min 0 W/m 7,9 C 9,3 C 0,0 km/h (0 Bft)
05.10.2022 00:55 9,4 C 91 % 1021,2 hPa 0,0 l/m 0,0 km/h (0 Bft) - - 0 0 min 0 W/m 8,0 C 9,4 C 0,0 km/h (0 Bft)
05.10.2022 00:50 9,6 C 91 % 1021,2 hPa 0,0 l/m 0,0 km/h (0 Bft) - - 0 0 min 0 W/m 8,2 C 9,6 C 0,0 km/h (0 Bft)
05.10.2022 00:45 9,6 C 91 % 1021,4 hPa 0,0 l/m 0,0 km/h (0 Bft) - - 0 0 min 0 W/m 8,2 C 9,6 C 0,0 km/h (0 Bft)
05.10.2022 00:40 9,7 C 91 % 1021,3 hPa 0,0 l/m 0,0 km/h (0 Bft) - - 0 0 min 0 W/m 8,3 C 9,7 C 0,0 km/h (0 Bft)
05.10.2022 00:35 9,6 C 91 % 1021,3 hPa 0,0 l/m 0,0 km/h (0 Bft) - - 0 0 min 0 W/m 8,2 C 9,6 C 0,0 km/h (0 Bft)
05.10.2022 00:30 9,6 C 90 % 1021,4 hPa 0,0 l/m 0,0 km/h (0 Bft) - - 0 0 min 0 W/m 8,0 C 9,6 C 0,0 km/h (0 Bft)
05.10.2022 00:25 9,7 C 90 % 1021,4 hPa 0,0 l/m 0,0 km/h (0 Bft) - - 0 0 min 0 W/m 8,1 C 9,7 C 0,0 km/h (0 Bft)
05.10.2022 00:20 9,9 C 89 % 1021,4 hPa 0,0 l/m 0,0 km/h (0 Bft) - - 0 0 min 0 W/m 8,2 C 9,9 C 0,0 km/h (0 Bft)
05.10.2022 00:15 10,1 C 90 % 1021,4 hPa 0,0 l/m 0,0 km/h (0 Bft) - - 0 0 min 0 W/m 8,5 C 10,1 C 0,0 km/h (0 Bft)
05.10.2022 00:10 10,2 C 90 % 1021,3 hPa 0,0 l/m 0,0 km/h (0 Bft) - - 0 0 min 0 W/m 8,6 C 10,2 C 0,0 km/h (0 Bft)
05.10.2022 00:05 10,4 C 90 % 1021,3 hPa 0,0 l/m 0,0 km/h (0 Bft) - - 0 0 min 0 W/m 8,8 C 10,4 C 0,0 km/h (0 Bft)
05.10.2022 00:00 10,7 C 91 % 1021,4 hPa 0,0 l/m 0,0 km/h (0 Bft) - - 0 0 min 0 W/m 9,3 C 10,7 C 0,0 km/h (0 Bft)
04.10.2022 23:55 10,6 C 92 % 1021,4 hPa 0,0 l/m 0,0 km/h (0 Bft) - - 0 0 min 0 W/m 9,4 C 10,6 C 0,0 km/h (0 Bft)
04.10.2022 23:50 10,2 C 93 % 1021,3 hPa 0,0 l/m 0,0 km/h (0 Bft) - - 0 0 min 0 W/m 9,1 C 10,2 C 0,0 km/h (0 Bft)
04.10.2022 23:45 9,9 C 93 % 1021,4 hPa 0,0 l/m 0,0 km/h (0 Bft) - - 0 0 min 0 W/m 8,8 C 9,9 C 0,0 km/h (0 Bft)
04.10.2022 23:40 9,4 C 93 % 1021,5 hPa 0,0 l/m 0,0 km/h (0 Bft) - - 0 0 min 0 W/m 8,3 C 9,4 C 0,0 km/h (0 Bft)
04.10.2022 23:35 8,9 C 92 % 1021,4 hPa 0,0 l/m 0,0 km/h (0 Bft) - - 0 0 min 0 W/m 7,7 C 8,9 C 0,0 km/h (0 Bft)
04.10.2022 23:30 8,8 C 91 % 1021,6 hPa 0,0 l/m 0,0 km/h (0 Bft) - - 0 0 min 0 W/m 7,4 C 8,8 C 0,0 km/h (0 Bft)
04.10.2022 23:25 8,7 C 90 % 1021,6 hPa 0,0 l/m 0,0 km/h (0 Bft) - - 0 0 min 0 W/m 7,2 C 8,7 C 0,0 km/h (0 Bft)
04.10.2022 23:20 8,9 C 90 % 1021,7 hPa 0,0 l/m 0,0 km/h (0 Bft) - - 0 0 min 0 W/m 7,4 C 8,9 C 0,0 km/h (0 Bft)
04.10.2022 23:15 9,2 C 90 % 1021,8 hPa 0,0 l/m 0,0 km/h (0 Bft) - - 0 0 min 0 W/m 7,6 C 9,2 C 0,0 km/h (0 Bft)
04.10.2022 23:10 9,5 C 90 % 1021,8 hPa 0,0 l/m 0,0 km/h (0 Bft) - - 0 0 min 0 W/m 7,9 C 9,5 C 0,0 km/h (0 Bft)
04.10.2022 23:05 9,8 C 90 % 1021,9 hPa 0,0 l/m 0,0 km/h (0 Bft) - - 0 0 min 0 W/m 8,2 C 9,8 C 0,0 km/h (0 Bft)
04.10.2022 23:00 9,9 C 91 % 1021,9 hPa 0,0 l/m 0,0 km/h (0 Bft) SO 144 0 min 0 W/m 8,5 C 9,9 C 0,0 km/h (0 Bft)
04.10.2022 22:55 10,0 C 91 % 1022,0 hPa 0,0 l/m 0,0 km/h (0 Bft) SO 144 0 min 0 W/m 8,6 C 10,0 C 0,0 km/h (0 Bft)
04.10.2022 22:50 10,1 C 91 % 1021,9 hPa 0,0 l/m 0,0 km/h (0 Bft) SO 144 0 min 0 W/m 8,7 C 10,1 C 0,0 km/h (0 Bft)
04.10.2022 22:45 10,1 C 91 % 1021,8 hPa 0,0 l/m 0,0 km/h (0 Bft) SO 144 0 min 0 W/m 8,7 C 10,1 C 0,0 km/h (0 Bft)
04.10.2022 22:40 10,2 C 91 % 1021,8 hPa 0,0 l/m 0,0 km/h (0 Bft) SO 144 0 min 0 W/m 8,8 C 10,2 C 0,0 km/h (0 Bft)
04.10.2022 22:35 10,2 C 91 % 1021,8 hPa 0,0 l/m 0,0 km/h (0 Bft) SO 144 0 min 0 W/m 8,8 C 10,2 C 0,0 km/h (0 Bft)
04.10.2022 22:30 10,3 C 91 % 1021,8 hPa 0,0 l/m 0,0 km/h (0 Bft) SO 144 0 min 0 W/m 8,9 C 10,3 C 0,0 km/h (0 Bft)
04.10.2022 22:25 10,3 C 91 % 1021,9 hPa 0,0 l/m 0,0 km/h (0 Bft) SO 144 0 min 0 W/m 8,9 C 10,3 C 0,0 km/h (0 Bft)
04.10.2022 22:20 10,2 C 91 % 1021,8 hPa 0,0 l/m 0,0 km/h (0 Bft) SO 144 0 min 0 W/m 8,8 C 10,2 C 0,0 km/h (0 Bft)
04.10.2022 22:15 10,1 C 91 % 1021,8 hPa 0,0 l/m 0,0 km/h (0 Bft) SO 144 0 min 0 W/m 8,7 C 10,1 C 0,0 km/h (0 Bft)
04.10.2022 22:10 10,1 C 91 % 1021,7 hPa 0,0 l/m 0,0 km/h (0 Bft) SO 144 0 min 0 W/m 8,7 C 10,1 C 0,0 km/h (0 Bft)
04.10.2022 22:05 10,2 C 91 % 1021,8 hPa 0,0 l/m 0,0 km/h (0 Bft) SO 144 0 min 0 W/m 8,8 C 10,2 C 0,0 km/h (0 Bft)
04.10.2022 22:00 10,1 C 91 % 1021,7 hPa 0,0 l/m 0,0 km/h (0 Bft) SO 144 0 min 0 W/m 8,7 C 10,1 C 0,0 km/h (0 Bft)
04.10.2022 21:55 10,0 C 90 % 1021,8 hPa 0,0 l/m 0,0 km/h (0 Bft) SO 144 0 min 0 W/m 8,4 C 10,0 C 0,0 km/h (0 Bft)
04.10.2022 21:50 10,0 C 91 % 1021,9 hPa 0,0 l/m 0,0 km/h (0 Bft) SO 144 0 min 0 W/m 8,6 C 10,0 C 0,0 km/h (0 Bft)
04.10.2022 21:45 9,8 C 90 % 1021,9 hPa 0,0 l/m 0,0 km/h (0 Bft) SO 144 0 min 0 W/m 8,2 C 9,8 C 0,0 km/h (0 Bft)
04.10.2022 21:40 9,8 C 89 % 1021,9 hPa 0,0 l/m 0,0 km/h (0 Bft) SO 144 0 min 0 W/m 8,1 C 9,8 C 0,0 km/h (0 Bft)
04.10.2022 21:35 9,9 C 89 % 1021,9 hPa 0,0 l/m 0,0 km/h (0 Bft) SO 144 0 min 0 W/m 8,2 C 9,9 C 0,0 km/h (0 Bft)
04.10.2022 21:30 10,0 C 88 % 1022,0 hPa 0,0 l/m 0,0 km/h (0 Bft) SO 144 0 min 0 W/m 8,1 C 10,0 C 0,0 km/h (0 Bft)
04.10.2022 21:25 10,2 C 87 % 1022,0 hPa 0,0 l/m 0,0 km/h (0 Bft) SO 144 0 min 0 W/m 8,1 C 10,2 C 0,0 km/h (0 Bft)
04.10.2022 21:20 10,4 C 88 % 1022,0 hPa 0,0 l/m 0,0 km/h (0 Bft) SO 144 0 min 0 W/m 8,5 C 10,4 C 0,0 km/h (0 Bft)
04.10.2022 21:15 10,6 C 87 % 1021,9 hPa 0,0 l/m 0,0 km/h (0 Bft) SO 144 0 min 0 W/m 8,5 C 10,6 C 0,0 km/h (0 Bft)
04.10.2022 21:10 10,8 C 87 % 1021,8 hPa 0,0 l/m 0,0 km/h (0 Bft) SO 144 0 min 0 W/m 8,7 C 10,8 C 0,0 km/h (0 Bft)
04.10.2022 21:05 11,1 C 86 % 1021,6 hPa 0,0 l/m 0,0 km/h (0 Bft) SO 144 0 min 0 W/m 8,8 C 11,1 C 0,0 km/h (0 Bft)
04.10.2022 21:00 11,3 C 87 % 1021,6 hPa 0,0 l/m 0,0 km/h (0 Bft) SO 144 0 min 0 W/m 9,2 C 11,3 C 0,0 km/h (0 Bft)
04.10.2022 20:55 11,5 C 87 % 1021,6 hPa 0,0 l/m 0,0 km/h (0 Bft) SO 144 0 min 0 W/m 9,4 C 11,5 C 0,0 km/h (0 Bft)
04.10.2022 20:50 11,6 C 88 % 1021,5 hPa 0,0 l/m 0,0 km/h (0 Bft) SO 144 0 min 0 W/m 9,7 C 11,6 C 0,0 km/h (0 Bft)
04.10.2022 20:45 11,5 C 88 % 1021,5 hPa 0,0 l/m 0,0 km/h (0 Bft) SO 144 0 min 0 W/m 9,6 C 11,5 C 0,0 km/h (0 Bft)
04.10.2022 20:40 11,4 C 89 % 1021,4 hPa 0,0 l/m 0,0 km/h (0 Bft) SO 144 0 min 0 W/m 9,7 C 11,4 C 0,0 km/h (0 Bft)
04.10.2022 20:35 11,2 C 88 % 1021,4 hPa 0,0 l/m 0,0 km/h (0 Bft) SO 144 0 min 0 W/m 9,3 C 11,2 C 0,0 km/h (0 Bft)
04.10.2022 20:30 11,1 C 88 % 1021,3 hPa 0,0 l/m 0,0 km/h (0 Bft) SO 144 0 min 0 W/m 9,2 C 11,1 C 0,0 km/h (0 Bft)
04.10.2022 20:25 11,1 C 88 % 1021,2 hPa 0,0 l/m 0,0 km/h (0 Bft) SO 144 0 min 0 W/m 9,2 C 11,1 C 0,0 km/h (0 Bft)
04.10.2022 20:20 11,1 C 88 % 1021,2 hPa 0,0 l/m 0,0 km/h (0 Bft) SO 144 0 min 0 W/m 9,2 C 11,1 C 0,0 km/h (0 Bft)
04.10.2022 20:15 11,3 C 88 % 1021,1 hPa 0,0 l/m 0,0 km/h (0 Bft) SO 144 0 min 0 W/m 9,4 C 11,3 C 0,0 km/h (0 Bft)
04.10.2022 20:10 11,3 C 87 % 1021,2 hPa 0,0 l/m 0,0 km/h (0 Bft) SO 144 0 min 0 W/m 9,2 C 11,3 C 0,0 km/h (0 Bft)
04.10.2022 20:05 11,4 C 87 % 1021,2 hPa 0,0 l/m 0,0 km/h (0 Bft) SO 144 0 min 0 W/m 9,3 C 11,4 C 0,0 km/h (0 Bft)
04.10.2022 20:00 11,4 C 87 % 1021,2 hPa 0,0 l/m 0,0 km/h (0 Bft) SO 144 0 min 0 W/m 9,3 C 11,4 C 0,0 km/h (0 Bft)
04.10.2022 19:55 11,4 C 87 % 1021,2 hPa 0,0 l/m 0,0 km/h (0 Bft) SO 144 0 min 0 W/m 9,3 C 11,4 C 0,0 km/h (0 Bft)
04.10.2022 19:50 11,5 C 86 % 1021,2 hPa 0,0 l/m 0,0 km/h (0 Bft) SO 144 0 min 0 W/m 9,2 C 11,5 C 0,0 km/h (0 Bft)
04.10.2022 19:45 11,6 C 86 % 1021,2 hPa 0,0 l/m 0,0 km/h (0 Bft) SO 144 0 min 0 W/m 9,3 C 11,6 C 0,0 km/h (0 Bft)
04.10.2022 19:40 11,8 C 85 % 1021,2 hPa 0,0 l/m 0,0 km/h (0 Bft) SO 144 0 min 0 W/m 9,4 C 11,8 C 0,0 km/h (0 Bft)
04.10.2022 19:35 12,2 C 85 % 1021,2 hPa 0,0 l/m 0,0 km/h (0 Bft) SO 144 0 min 0 W/m 9,8 C 12,2 C 0,0 km/h (0 Bft)
04.10.2022 19:30 12,3 C 84 % 1021,1 hPa 0,0 l/m 0,0 km/h (0 Bft) SO 144 0 min 0 W/m 9,7 C 12,3 C 0,0 km/h (0 Bft)
04.10.2022 19:25 12,6 C 83 % 1021,1 hPa 0,0 l/m 0,0 km/h (0 Bft) SO 144 0 min 0 W/m 9,8 C 12,6 C 0,0 km/h (0 Bft)
04.10.2022 19:20 12,8 C 82 % 1021,0 hPa 0,0 l/m 0,0 km/h (0 Bft) SO 144 0 min 0 W/m 9,8 C 12,8 C 0,0 km/h (0 Bft)
04.10.2022 19:15 13,1 C 82 % 1021,0 hPa 0,0 l/m 0,0 km/h (0 Bft) SO 144 0 min 0 W/m 10,1 C 13,1 C 0,0 km/h (0 Bft)
04.10.2022 19:10 13,3 C 82 % 1021,0 hPa 0,0 l/m 0,0 km/h (0 Bft) SO 144 0 min 0 W/m 10,3 C 13,3 C 0,0 km/h (0 Bft)
04.10.2022 19:05 13,6 C 81 % 1021,0 hPa 0,0 l/m 0,0 km/h (0 Bft) SO 144 0 min 0 W/m 10,4 C 13,6 C 0,0 km/h (0 Bft)
04.10.2022 19:00 13,9 C 80 % 1020,9 hPa 0,0 l/m 0,0 km/h (0 Bft) SO 144 0 min 0 W/m 10,5 C 13,9 C 0,0 km/h (0 Bft)
04.10.2022 18:55 14,2 C 78 % 1020,8 hPa 0,0 l/m 0,0 km/h (0 Bft) SO 144 0 min 0 W/m 10,4 C 14,2 C 0,0 km/h (0 Bft)
04.10.2022 18:50 14,4 C 77 % 1020,9 hPa 0,0 l/m 0,0 km/h (0 Bft) SO 144 0 min 5 W/m 10,4 C 14,4 C 0,0 km/h (0 Bft)
04.10.2022 18:45 14,6 C 77 % 1020,8 hPa 0,0 l/m 0,0 km/h (0 Bft) SO 144 0 min 7 W/m 10,6 C 14,6 C 0,0 km/h (0 Bft)
04.10.2022 18:40 14,9 C 76 % 1020,7 hPa 0,0 l/m 0,0 km/h (0 Bft) SO 144 0 min 9 W/m 10,7 C 14,9 C 0,0 km/h (0 Bft)
04.10.2022 18:35 15,1 C 75 % 1020,7 hPa 0,0 l/m 0,0 km/h (0 Bft) SO 144 0 min 11 W/m 10,7 C 15,1 C 0,0 km/h (0 Bft)
04.10.2022 18:30 15,4 C 73 % 1020,7 hPa 0,0 l/m 0,0 km/h (0 Bft) SO 144 0 min 12 W/m 10,6 C 15,4 C 0,0 km/h (0 Bft)
04.10.2022 18:25 15,9 C 73 % 1020,8 hPa 0,0 l/m 0,0 km/h (0 Bft) SO 144 0 min 16 W/m 11,1 C 15,9 C 0,0 km/h (0 Bft)
04.10.2022 18:20 16,5 C 70 % 1020,8 hPa 0,0 l/m 0,0 km/h (0 Bft) SO 144 0 min 19 W/m 11,0 C 16,5 C 0,0 km/h (0 Bft)
04.10.2022 18:15 16,8 C 68 % 1021,0 hPa 0,0 l/m 0,0 km/h (0 Bft) SO 144 0 min 23 W/m 10,9 C 16,8 C 0,0 km/h (0 Bft)
04.10.2022 18:10 17,1 C 67 % 1021,1 hPa 0,0 l/m 0,0 km/h (0 Bft) SO 144 0 min 32 W/m 10,9 C 17,1 C 0,0 km/h (0 Bft)
04.10.2022 18:05 17,2 C 65 % 1021,1 hPa 0,0 l/m 0,0 km/h (0 Bft) SO 144 0 min 33 W/m 10,6 C 17,2 C 0,0 km/h (0 Bft)
04.10.2022 18:00 17,4 C 64 % 1021,1 hPa 0,0 l/m 0,0 km/h (0 Bft) SO 144 0 min 35 W/m 10,5 C 17,4 C 0,0 km/h (0 Bft)
04.10.2022 17:55 17,7 C 63 % 1021,1 hPa 0,0 l/m 0,0 km/h (0 Bft) SO 141 0 min 62 W/m 10,6 C 17,7 C 0,0 km/h (0 Bft)
04.10.2022 17:50 17,8 C 63 % 1021,1 hPa 0,0 l/m 0,0 km/h (0 Bft) S-SO 153 0 min 98 W/m 10,7 C 17,8 C 0,0 km/h (0 Bft)
04.10.2022 17:45 18,0 C 63 % 1021,2 hPa 0,0 l/m 0,0 km/h (0 Bft) S 178 0 min 105 W/m 10,8 C 18,0 C 0,0 km/h (0 Bft)
04.10.2022 17:40 18,1 C 64 % 1021,2 hPa 0,0 l/m 0,0 km/h (0 Bft) SO 130 0 min 121 W/m 11,2 C 18,1 C 0,0 km/h (0 Bft)
04.10.2022 17:35 18,1 C 63 % 1021,2 hPa 0,0 l/m 0,0 km/h (0 Bft) SO 129 0 min 130 W/m 10,9 C 18,1 C 0,0 km/h (0 Bft)
04.10.2022 17:30 18,2 C 62 % 1021,3 hPa 0,0 l/m 0,0 km/h (0 Bft) SO 129 0 min 144 W/m 10,8 C 18,2 C 0,0 km/h (0 Bft)
04.10.2022 17:25 18,3 C 61 % 1021,4 hPa 0,0 l/m 0,0 km/h (0 Bft) SO 126 0 min 142 W/m 10,6 C 18,3 C 0,0 km/h (0 Bft)
04.10.2022 17:20 18,3 C 61 % 1021,3 hPa 0,0 l/m 0,0 km/h (0 Bft) SO 125 0 min 149 W/m 10,6 C 18,3 C 0,0 km/h (0 Bft)
04.10.2022 17:15 18,3 C 62 % 1021,3 hPa 0,0 l/m 0,0 km/h (0 Bft) SO 125 0 min 142 W/m 10,9 C 18,3 C 0,0 km/h (0 Bft)
04.10.2022 17:10 18,3 C 61 % 1021,3 hPa 0,0 l/m 0,0 km/h (0 Bft) SO 126 5 min 185 W/m 10,6 C 18,3 C 0,0 km/h (0 Bft)
04.10.2022 17:05 18,3 C 61 % 1021,3 hPa 0,0 l/m 0,0 km/h (0 Bft) SO 126 5 min 197 W/m 10,6 C 18,3 C 0,0 km/h (0 Bft)
04.10.2022 17:00 18,5 C 60 % 1021,3 hPa 0,0 l/m 0,0 km/h (0 Bft) S-SO 151 5 min 213 W/m 10,6 C 18,5 C 0,0 km/h (0 Bft)
04.10.2022 16:55 18,5 C 59 % 1021,4 hPa 0,0 l/m 0,0 km/h (0 Bft) S 186 5 min 223 W/m 10,3 C 18,5 C 0,0 km/h (0 Bft)
04.10.2022 16:50 18,5 C 59 % 1021,4 hPa 0,0 l/m 0,0 km/h (0 Bft) S-SO 159 5 min 239 W/m 10,3 C 18,5 C 0,0 km/h (0 Bft)
04.10.2022 16:45 18,6 C 59 % 1021,4 hPa 0,0 l/m 0,0 km/h (0 Bft) S-SW 205 5 min 257 W/m 10,4 C 18,6 C 0,0 km/h (0 Bft)
04.10.2022 16:40 18,5 C 61 % 1021,5 hPa 0,0 l/m 0,0 km/h (0 Bft) S-SW 200 5 min 274 W/m 10,8 C 18,5 C 0,0 km/h (0 Bft)
04.10.2022 16:35 18,3 C 60 % 1021,6 hPa 0,0 l/m 0,0 km/h (0 Bft) W-SW 241 5 min 292 W/m 10,4 C 18,3 C 0,0 km/h (0 Bft)
04.10.2022 16:30 18,4 C 62 % 1021,7 hPa 0,0 l/m 0,0 km/h (0 Bft) SO 144 5 min 309 W/m 11,0 C 18,4 C 0,0 km/h (0 Bft)
04.10.2022 16:25 18,3 C 60 % 1021,7 hPa 0,0 l/m 0,0 km/h (0 Bft) S 183 5 min 325 W/m 10,4 C 18,3 C 0,0 km/h (0 Bft)
04.10.2022 16:20 18,3 C 60 % 1021,8 hPa 0,0 l/m 0,0 km/h (0 Bft) SO 146 5 min 336 W/m 10,4 C 18,3 C 0,0 km/h (0 Bft)
04.10.2022 16:15 18,3 C 61 % 1021,8 hPa 0,0 l/m 0,0 km/h (0 Bft) SO 140 5 min 348 W/m 10,6 C 18,3 C 0,0 km/h (0 Bft)
04.10.2022 16:10 18,2 C 60 % 1021,9 hPa 0,0 l/m 0,0 km/h (0 Bft) SW 219 5 min 359 W/m 10,3 C 18,2 C 0,0 km/h (0 Bft)
04.10.2022 16:05 18,1 C 63 % 1021,8 hPa 0,0 l/m 0,0 km/h (0 Bft) SO 139 5 min 367 W/m 10,9 C 18,1 C 0,0 km/h (0 Bft)
04.10.2022 16:00 18,2 C 60 % 1021,8 hPa 0,0 l/m 0,0 km/h (0 Bft) S-SO 160 5 min 378 W/m 10,3 C 18,2 C 0,0 km/h (0 Bft)
04.10.2022 15:55 18,2 C 61 % 1021,9 hPa 0,0 l/m 0,0 km/h (0 Bft) O-SO 114 5 min 392 W/m 10,6 C 18,2 C 0,0 km/h (0 Bft)
04.10.2022 15:50 18,1 C 61 % 1021,9 hPa 0,0 l/m 0,0 km/h (0 Bft) SO 134 5 min 404 W/m 10,5 C 18,1 C 0,0 km/h (0 Bft)
04.10.2022 15:45 18,2 C 61 % 1021,9 hPa 0,0 l/m 0,0 km/h (0 Bft) SO 138 5 min 410 W/m 10,6 C 18,2 C 0,0 km/h (0 Bft)
04.10.2022 15:40 18,0 C 63 % 1022,0 hPa 0,0 l/m 0,0 km/h (0 Bft) SO 125 5 min 410 W/m 10,8 C 18,0 C 0,0 km/h (0 Bft)
04.10.2022 15:35 17,9 C 64 % 1022,0 hPa 0,0 l/m 0,0 km/h (0 Bft) O-SO 121 5 min 383 W/m 11,0 C 17,9 C 0,0 km/h (0 Bft)
04.10.2022 15:30 17,9 C 64 % 1022,1 hPa 0,0 l/m 0,0 km/h (0 Bft) SO 134 5 min 445 W/m 11,0 C 17,9 C 0,0 km/h (0 Bft)
04.10.2022 15:25 18,0 C 63 % 1022,1 hPa 0,0 l/m 0,0 km/h (0 Bft) SO 141 5 min 448 W/m 10,8 C 18,0 C 0,0 km/h (0 Bft)
04.10.2022 15:20 18,2 C 63 % 1022,1 hPa 0,0 l/m 0,0 km/h (0 Bft) S-SO 160 5 min 459 W/m 11,0 C 18,2 C 0,0 km/h (0 Bft)
04.10.2022 15:15 18,2 C 64 % 1022,2 hPa 0,0 l/m 0,0 km/h (0 Bft) SO 128 5 min 466 W/m 11,3 C 18,2 C 0,0 km/h (0 Bft)
04.10.2022 15:10 18,1 C 63 % 1022,2 hPa 0,0 l/m 0,0 km/h (0 Bft) SO 129 5 min 475 W/m 10,9 C 18,1 C 0,0 km/h (0 Bft)
04.10.2022 15:05 17,9 C 66 % 1022,2 hPa 0,0 l/m 0,0 km/h (0 Bft) SO 128 5 min 482 W/m 11,5 C 17,9 C 0,0 km/h (0 Bft)
04.10.2022 15:00 17,9 C 63 % 1022,3 hPa 0,0 l/m 0,0 km/h (0 Bft) S-SO 163 5 min 492 W/m 10,8 C 17,9 C 0,0 km/h (0 Bft)
_ Min-Zeit 02:35 16:45 14:45 - 15:00 - - - - 02:35 02:35 15:00
Minimum _ 7,0 C 59 % 1019,1 hPa - 0,0 km/h (0 Bft) - - - - 5,8 C 7,0 C 0,0 km/h (0 Bft)
_ Max-Zeit 16:45 09:45 15:00 07:15 15:00 - - 15:00 13:15 14:40 16:45 15:00
Maximum _ 18,6 C 95 % 1022,3 hPa 0,2 l/m 0,0 km/h
S-SO (0 Bft)
- - 5 min 643 W/m 14,3 C 18,6 C 0,0 km/h
- - (0 Bft)
Durchschnitt _ 12,5 C 84 % 1021,0 hPa #0,2 l/m 0,0 km/h (0 Bft) - - - #3:10 h 242 W/m 9,7 C 12,5 C 0,0 km/h (0 Bft)